Observations for Trim Patrick St
| Time | AQI | Temp °C | Hum % | Pres Pa | CO μg/m³ | H₂S μg/m³ | NO μg/m³ | NO₂ μg/m³ | O₃ μg/m³ | SO₂ μg/m³ | PM1 μg/m³ | PM2.5 μg/m³ | PM10 μg/m³ |
|---|---|---|---|---|---|---|---|---|---|---|---|---|---|
| Sunday 2 August 2026 | |||||||||||||
| 10:57 | 2 | 24.6 | 45 | 68,981 | 0 | 0 | 1.66 | 7.34 | 63.19 | 3.78 | 5.43 | 11.34 | 12.48 |
| 10:56 | 2 | 24.6 | 46 | 68,999 | 0 | 0 | 1.72 | 10.57 | 67.77 | 6.02 | 4.57 | 9.72 | 10.69 |
| 10:55 | 2 | 24.5 | 46 | 68,995 | 0 | 0 | 1.66 | 8.52 | 67.06 | 5.03 | 2.86 | 8.2 | 9.02 |
| 10:54 | 2 | 24.5 | 46 | 69,014 | 0 | 0 | 1.72 | 12.75 | 67.73 | 5.58 | 4.57 | 10.5 | 11.55 |
| 10:53 | 2 | 24.4 | 46 | 69,010 | 0 | 0 | 1.7 | 10.24 | 67.01 | 4.74 | 3.71 | 9.72 | 10.7 |
| 10:52 | 2 | 24.4 | 46 | 69,006 | 0 | 0 | 1.64 | 8.95 | 67.04 | 3.98 | 2.86 | 8.98 | 9.88 |
| 10:51 | 2 | 24.3 | 47 | 69,035 | 0 | 0 | 1.64 | 8.41 | 65.01 | 4.27 | 2.86 | 8.94 | 9.83 |
| 10:50 | 2 | 24.3 | 48 | 69,071 | 0 | 0 | 1.77 | 11.29 | 64.39 | 5.34 | 2 | 8.11 | 8.92 |
| 10:49 | 2 | 24.2 | 48 | 69,057 | 0 | 0 | 1.64 | 9.78 | 65.57 | 4.38 | 3.71 | 9.62 | 10.58 |
| 10:48 | 2 | 24.2 | 48 | 69,065 | 0 | 0 | 1.54 | 8.63 | 67.87 | 4.38 | 2 | 7.32 | 8.05 |
| 10:47 | 2 | 24.2 | 50 | 69,072 | 0 | 0 | 1.62 | 6.55 | 66.28 | 6.2 | 4.57 | 10.22 | 11.25 |
| 10:46 | 2 | 24.1 | 48 | 69,084 | 0 | 0 | 1.63 | 9.65 | 67.2 | 5.61 | 5.43 | 11.11 | 12.22 |
| 10:45 | 2 | 24.1 | 49 | 69,100 | 0 | 0 | 1.39 | 10.12 | 65.94 | 4.62 | 4.57 | 9.56 | 10.52 |
| 10:44 | 2 | 24 | 50 | 69,116 | 0 | 0 | 1.53 | 9.45 | 65.65 | 5.06 | 3.71 | 9.5 | 10.44 |
| 10:43 | 2 | 24 | 50 | 69,108 | 0 | 0 | 1.57 | 7.03 | 63.28 | 4.45 | 3.71 | 8.74 | 9.61 |
| 10:42 | 2 | 24 | 49 | 69,128 | 0 | 0 | 1.72 | 11.56 | 65.91 | 5.92 | 2.86 | 8.75 | 9.63 |
| 10:41 | 2 | 23.9 | 49 | 69,122 | 0 | 0 | 1.47 | 13.46 | 66.74 | 4.98 | 4.57 | 9.55 | 10.5 |
| 10:40 | 2 | 23.9 | 49 | 69,141 | 0 | 0 | 1.66 | 8.27 | 62.48 | 4.74 | 4.57 | 10.29 | 11.32 |
| 10:39 | 2 | 23.9 | 50 | 69,139 | 0 | 0 | 1.8 | 12.22 | 62.77 | 4.86 | 3.71 | 9.5 | 10.44 |
| 10:38 | 2 | 23.8 | 49 | 69,136 | 0 | 0 | 1.76 | 10.43 | 64.95 | 4.74 | 5.43 | 11.04 | 12.14 |